User: anonymous   Login
Location: Unspecified
(0.0000°N, 0.0000°E)
Time: 12:32:24
(UTC+01:00)
Language:

Cosmos 1898 Rocket - Orbit

View from above orbital plane
View from above orbital plane
View from above satellite
View from above satellite

Ground track
Ground track

The orbit data is extracted from the following two-line orbital elements,

1 18586U 87098B   18019.20973707 -.00000002  00000-0  83022-5 0  9997
2 18586  74.0062 257.5438 0022172 263.2590  96.6040 14.36810849578384
Epoch (UTC): 19 January 2018 05:02:01
Eccentricity: 0.0022172
inclination: 74.0062°
perigee height: 753 km
apogee height: 785 km
right ascension of ascending node: 257.5438°
argument of perigee: 263.2590°
revolutions per day: 14.36810849
mean anomaly at epoch: 96.6040°
orbit number at epoch: 57838

The dashed part of the orbit path shows where the satellite is in the earth's shadow,  

DLR